Precipitable_Water
1.76 1.71 1.72 1.59 1.63 1.66 1.63 1.64 1.70 1.74 1.76 1.80 1.86 1.91 1.90 1.92 1.94 1.85 1.79 1.66 1.52 1.44 1.43 1.31 1.19 1.22 1.16 1.13 1.06 1.12 1.25 1.32 1.21 1.30 1.30 1.33 1.26 1.18 1.19 1.17 1.20 1.03 0.84
1.47 1.31 1.52 1.34 1.59 1.55 1.60 1.64 1.69 1.70 1.78 1.79 1.84 1.89 1.91 1.94 2.00 1.96 1.89 1.86 1.75 1.61 1.54 1.40 1.28 1.26 1.20 1.21 1.10 0.98 1.05 1.21 1.27 1.23 1.27 1.32 1.31 1.30 1.26 1.14 1.14 1.06 0.94
1.41 1.27 1.31 1.49 1.57 1.58 1.59 1.64 1.73 1.75 1.76 1.80 1.81 1.82 1.87 1.93 1.95 1.99 1.98 1.96 1.92 1.84 1.72 1.58 1.40 1.32 1.20 1.18 1.22 1.13 1.10 1.15 1.23 1.26 1.19 1.33 1.38 1.40 1.27 1.15 1.03 0.92 0.89
1.45 1.31 1.26 1.44 1.58 1.67 1.69 1.71 1.75 1.82 1.81 1.83 1.85 1.85 1.88 1.92 1.95 1.98 1.99 1.99 1.96 1.98 1.93 1.77 1.57 1.47 1.33 1.25 1.24 1.17 1.16 1.15 1.17 1.24 1.24 1.25 1.31 1.35 1.22 1.03 0.85 0.82 0.78
1.45 1.50 1.41 1.48 1.66 1.70 1.69 1.72 1.78 1.84 1.83 1.87 1.88 1.89 1.92 1.93 1.95 1.98 1.97 1.99 2.04 2.01 1.85 1.75 1.75 1.68 1.47 1.32 1.26 1.25 1.14 1.09 1.13 1.12 1.20 1.22 1.19 1.19 1.04 0.99 0.77 0.77 0.82
1.43 1.48 1.60 1.64 1.66 1.71 1.84 1.90 1.91 1.89 1.90 1.95 1.97 1.97 1.96 2.00 2.03 1.99 1.99 1.94 1.98 1.99 1.80 1.82 1.76 1.90 1.68 1.40 1.30 1.31 1.18 1.01 1.05 1.04 1.11 1.13 1.13 1.08 0.95 0.78 0.71 0.69 0.65
1.22 1.36 1.58 1.80 1.90 1.95 1.99 2.02 2.03 2.02 2.06 2.00 2.07 2.05 2.01 2.07 2.12 2.14 2.12 2.18 2.21 2.11 1.99 1.83 1.80 1.96 1.80 1.59 1.42 1.33 1.13 1.06 1.17 1.18 1.10 1.07 0.97 0.89 0.80 0.64 0.67 0.71 0.70
1.10 1.17 1.25 1.34 1.39 1.45 1.48 1.58 1.73 1.90 1.99 2.06 2.07 2.07 2.05 2.09 2.15 2.18 2.31 2.30 2.00 1.69 1.91 1.80 1.76 1.76 1.71 1.70 1.57 1.45 1.11 1.10 1.20 1.20 1.19 1.13 1.07 0.97 0.83 0.73 0.76 0.78 0.78
0.98 1.05 1.10 1.10 1.07 1.09 1.10 1.20 1.32 1.38 1.46 1.59 1.78 1.91 2.02 2.07 2.09 2.07 2.15 2.08 1.92 1.86 1.89 1.80 1.77 1.66 1.86 1.78 1.61 1.53 1.20 1.17 1.24 1.28 1.36 1.32 1.16 1.02 0.92 0.83 0.73 0.65 0.56
1.05 1.02 1.05 1.03 0.97 0.92 0.92 0.94 1.04 1.11 1.14 1.31 1.39 1.52 1.60 1.67 1.82 1.84 1.88 1.84 1.78 1.83 1.82 1.82 1.79 1.71 1.79 1.84 1.67 1.54 1.29 1.14 1.17 1.16 1.29 1.30 1.19 1.07 1.00 0.91 0.79 0.68 0.68
1.16 1.18 1.15 1.08 1.02 1.04 1.06 1.05 1.01 1.00 0.99 1.03 1.09 1.17 1.26 1.41 1.49 1.51 1.60 1.62 1.63 1.62 1.63 1.68 1.79 1.70 1.72 1.82 1.72 1.58 1.52 1.34 1.28 1.21 1.19 1.26 1.19 1.09 1.02 1.05 1.01 0.92 0.78
1.26 1.21 1.16 1.16 1.17 1.17 1.16 1.15 1.15 1.10 1.06 1.07 1.07 1.06 1.08 1.17 1.23 1.29 1.34 1.39 1.46 1.46 1.51 1.67 1.75 1.69 1.69 1.78 1.72 1.62 1.55 1.44 1.32 1.17 1.15 1.19 1.17 1.11 1.08 1.12 1.15 1.12 0.99
1.34 1.25 1.24 1.27 1.30 1.32 1.27 1.25 1.20 1.16 1.12 1.09 1.08 1.07 1.06 1.14 1.15 1.14 1.23 1.29 1.33 1.34 1.50 1.59 1.63 1.62 1.66 1.71 1.75 1.62 1.51 1.43 1.31 1.15 1.13 1.18 1.18 1.21 1.17 1.18 1.26 1.26 1.17
1.31 1.29 1.32 1.33 1.35 1.37 1.34 1.25 1.14 1.02 0.97 0.96 1.03 1.06 1.11 1.16 1.23 1.17 1.09 1.20 1.29 1.30 1.37 1.48 1.54 1.58 1.60 1.61 1.66 1.57 1.53 1.45 1.27 1.17 1.21 1.20 1.21 1.26 1.16 1.24 1.24 1.25 1.13
1.41 1.39 1.38 1.35 1.34 1.31 1.30 1.21 1.07 0.98 1.01 1.01 1.08 1.10 1.09 1.09 1.23 1.31 1.27 1.20 1.24 1.28 1.33 1.33 1.35 1.38 1.38 1.39 1.45 1.48 1.51 1.44 1.24 1.26 1.25 1.12 1.13 1.20 1.17 1.22 1.27 1.29 1.20
1.36 1.33 1.34 1.31 1.28 1.22 1.16 1.10 1.17 1.14 1.15 1.21 1.23 1.21 1.20 1.26 1.28 1.30 1.31 1.36 1.37 1.39 1.29 1.20 1.20 1.25 1.30 1.36 1.37 1.41 1.44 1.42 1.30 1.29 1.25 1.10 1.08 1.13 1.15 1.23 1.31 1.27 1.24
1.35 1.34 1.30 1.20 1.14 1.08 1.05 1.02 0.98 1.11 1.23 1.23 1.26 1.28 1.27 1.23 1.29 1.33 1.38 1.40 1.42 1.40 1.27 1.28 1.29 1.30 1.29 1.33 1.39 1.39 1.37 1.38 1.37 1.33 1.25 1.10 1.11 1.16 1.13 1.17 1.32 1.31 1.23
1.21 1.17 1.10 1.05 1.09 1.13 1.12 1.10 1.10 1.04 1.02 1.06 1.21 1.23 1.22 1.23 1.25 1.26 1.31 1.31 1.26 1.33 1.32 1.34 1.31 1.35 1.37 1.39 1.43 1.43 1.40 1.40 1.37 1.34 1.23 1.14 1.13 1.19 1.11 1.13 1.32 1.29 1.25
1.05 1.08 1.14 1.19 1.23 1.21 1.21 1.20 1.17 1.14 1.12 1.11 1.15 1.20 1.29 1.33 1.31 1.28 1.28 1.26 1.23 1.25 1.32 1.32 1.33 1.36 1.38 1.48 1.51 1.52 1.49 1.44 1.41 1.39 1.29 1.22 1.20 1.28 1.21 1.15 1.26 1.27 1.30
1.21 1.18 1.17 1.18 1.19 1.18 1.15 1.12 1.09 1.08 1.07 1.07 1.08 1.11 1.17 1.20 1.20 1.24 1.24 1.20 1.16 1.20 1.25 1.26 1.31 1.33 1.36 1.42 1.51 1.55 1.49 1.43 1.43 1.39 1.41 1.38 1.40 1.37 1.25 1.17 1.27 1.31 1.33
1.18 1.17 1.12 1.11 1.08 1.06 1.04 1.02 1.02 1.01 0.99 1.00 1.03 1.10 1.13 1.08 1.05 1.10 1.11 1.17 1.18 1.18 1.25 1.27 1.29 1.33 1.37 1.40 1.45 1.47 1.46 1.49 1.44 1.48 1.45 1.50 1.48 1.37 1.29 1.25 1.34 1.38 1.38
1.04 1.01 1.00 0.99 1.01 1.00 0.97 0.99 0.99 0.98 0.96 0.95 0.96 1.00 1.04 1.07 1.10 1.10 1.11 1.09 1.09 1.17 1.22 1.27 1.30 1.31 1.35 1.36 1.40 1.43 1.46 1.52 1.58 1.50 1.53 1.56 1.55 1.45 1.30 1.30 1.32 1.37 1.33
1.04 1.03 1.05 1.05 1.04 1.03 1.02 1.02 1.00 0.98 0.97 0.97 0.97 0.96 1.01 1.04 1.10 1.15 1.19 1.21 1.20 1.21 1.27 1.24 1.22 1.29 1.38 1.41 1.43 1.48 1.47 1.46 1.51 1.57 1.50 1.51 1.53 1.50 1.35 1.31 1.36 1.35 1.30
1.09 1.06 1.04 1.03 1.04 1.00 0.98 0.95 0.97 0.97 0.97 0.97 0.97 0.99 1.01 1.09 1.15 1.22 1.27 1.29 1.26 1.29 1.37 1.40 1.34 1.33 1.42 1.43 1.45 1.49 1.59 1.62 1.60 1.54 1.52 1.52 1.54 1.57 1.48 1.38 1.34 1.43 1.36
1.09 1.06 1.03 1.00 0.98 0.96 0.95 0.96 0.98 0.99 1.01 1.02 1.02 1.03 1.06 1.12 1.20 1.26 1.40 1.40 1.36 1.38 1.43 1.48 1.50 1.48 1.50 1.50 1.46 1.50 1.60 1.63 1.66 1.65 1.54 1.49 1.49 1.50 1.48 1.40 1.38 1.41 1.39
1.09 1.05 1.00 1.00 0.99 0.99 0.98 0.98 0.99 1.02 1.03 1.05 1.06 1.06 1.09 1.12 1.20 1.27 1.42 1.50 1.46 1.49 1.47 1.52 1.57 1.58 1.58 1.60 1.57 1.60 1.65 1.62 1.63 1.63 1.61 1.54 1.45 1.42 1.45 1.40 1.42 1.41 1.35
Wind_Speed
9 17 20 18 16 14 14 14 13 12 11 11 10 9 8 7 6 6 6 5 5 6 7 8 9 10 10 11 11 12 13 13 12 10 11 10 11 10 10 10 10 10 9
10 11 17 19 16 14 14 14 14 14 13 12 12 11 11 10 9 9 10 9 9 9 9 9 10 10 11 12 12 13 13 14 14 13 13 12 12 12 11 11 11 10 9
5 1 6 11 12 12 14 13 13 14 14 15 15 15 14 14 13 13 13 13 13 12 12 12 13 13 13 13 13 13 13 14 15 14 14 14 13 12 12 11 11 10 10
8 7 7 9 12 13 14 14 15 16 17 17 17 18 18 18 17 17 16 16 16 16 15 15 17 17 16 15 14 14 13 13 14 15 15 15 15 14 13 12 12 12 11
11 11 10 10 11 13 15 16 16 17 18 19 20 21 22 22 22 22 21 21 20 19 18 18 23 23 20 17 15 15 14 15 14 15 15 15 16 15 15 13 13 12 12
10 12 14 15 15 16 17 17 18 20 21 21 22 23 24 24 24 25 25 25 25 24 23 24 26 26 23 20 18 16 15 15 15 15 15 16 16 16 15 15 14 13 13
7 8 9 10 12 14 16 18 19 21 22 23 23 24 25 26 26 26 27 26 24 28 28 25 22 22 23 20 19 18 17 17 16 16 15 15 15 16 15 15 15 15 14
6 7 8 9 10 12 13 15 16 18 20 22 23 25 26 26 27 27 27 24 20 19 15 15 13 10 17 18 17 17 17 17 17 17 17 17 16 16 15 15 15 15 14
2 3 5 7 10 12 14 15 17 18 19 20 22 23 25 26 27 27 28 24 24 22 17 15 15 16 18 17 16 17 18 18 18 17 16 18 17 17 16 15 15 15 14
2 3 5 6 7 9 11 13 15 17 19 21 22 23 24 24 24 24 25 24 24 21 19 19 19 19 18 20 19 17 18 18 17 18 18 17 19 19 18 17 16 16 15
5 6 7 8 10 11 12 14 15 17 19 20 22 23 24 24 24 24 24 24 23 22 21 22 21 22 21 21 20 20 19 19 19 19 18 19 19 20 21 19 17 16 16
9 10 11 12 14 15 17 18 19 20 21 22 22 23 24 24 24 24 24 25 23 22 23 23 23 24 24 25 25 24 22 21 21 21 21 21 21 22 23 22 19 18 17
13 14 15 16 18 19 21 22 23 24 24 24 24 24 24 24 24 24 25 25 26 25 25 25 24 23 25 26 27 26 25 24 24 23 23 22 22 22 22 23 21 19 18
17 18 19 21 22 23 25 26 27 28 27 26 25 25 25 24 25 25 25 26 27 27 27 27 26 26 26 27 28 28 28 27 27 26 25 24 22 22 23 24 22 21 19
19 21 22 24 25 27 28 29 29 29 26 25 25 26 26 26 25 25 26 26 27 27 27 27 27 27 28 29 30 31 30 29 29 28 27 26 24 24 25 25 23 21 20
22 23 25 28 29 31 31 31 29 27 26 26 26 27 27 28 29 29 29 29 29 28 28 28 29 29 30 31 32 32 33 33 31 31 30 28 27 26 25 27 25 24 22
25 27 29 31 31 31 30 30 28 27 27 27 28 28 29 30 30 30 30 30 30 30 30 30 31 30 30 31 32 33 34 34 33 33 31 31 30 29 28 28 27 26 24
28 28 29 29 29 28 28 29 29 28 28 29 29 29 30 31 31 32 32 32 32 33 33 33 32 31 31 32 32 34 35 35 35 34 34 33 33 32 31 30 29 28 26
26 25 26 26 27 28 28 29 29 30 30 31 31 30 31 31 31 31 31 33 34 34 35 35 34 34 34 34 34 35 36 37 37 37 36 36 36 35 32 31 30 28 28
23 23 25 26 27 27 27 28 28 29 30 30 30 30 31 31 32 32 32 33 33 33 33 34 34 34 34 34 35 35 36 36 38 38 38 37 37 37 35 33 32 29 28
24 24 25 25 26 26 27 28 28 29 30 30 31 32 33 35 35 35 35 34 34 35 35 35 35 35 34 34 34 35 36 38 38 39 39 39 39 39 38 36 33 31 30
23 23 24 24 25 26 28 28 29 31 32 34 35 35 36 36 36 35 35 36 38 38 38 38 37 36 36 36 36 35 35 35 37 37 38 40 40 40 40 38 36 32 31
22 23 23 24 25 27 28 30 31 33 35 36 37 37 37 37 36 37 38 39 39 39 40 40 40 39 39 38 37 37 36 36 35 36 38 38 39 41 42 40 38 35 32
21 22 23 24 25 26 28 31 32 34 34 36 36 37 38 37 37 37 37 38 38 39 39 41 41 41 40 40 39 39 38 38 38 38 39 39 39 39 40 42 39 39 35
21 22 22 23 25 26 28 30 31 31 32 34 34 35 36 36 35 35 35 34 33 33 34 36 38 40 41 41 41 40 40 40 40 39 38 40 41 40 41 41 40 39 37
20 21 22 23 24 25 26 28 29 30 32 33 34 35 35 34 32 31 31 30 30 30 30 31 32 34 37 38 40 41 40 40 41 42 41 40 42 42 41 41 39 38 38
Wind_Direction
248 261 244 229 224 227 231 231 232 235 238 243 247 251 257 262 261 259 260 259 257 258 264 266 264 264 262 259 256 253 250 247 250 244 240 241 243 247 252 257 262 264 267
290 318 217 212 222 225 228 232 237 239 241 245 248 250 255 260 261 262 259 258 261 263 267 270 270 267 264 262 259 256 252 248 248 243 242 243 246 247 253 256 258 260 263
271 330 176 206 217 227 233 236 240 243 247 249 251 253 256 260 262 263 263 261 261 264 269 274 274 270 264 263 258 257 253 250 245 247 245 243 245 247 251 254 253 256 258
252 250 235 236 237 238 240 245 249 251 252 253 255 257 258 260 260 262 262 262 262 263 265 273 274 265 261 260 258 255 253 250 247 245 244 241 243 245 249 251 250 255 254
254 250 247 243 245 248 252 256 258 256 258 258 260 260 260 260 260 260 260 260 260 260 264 279 284 258 253 253 253 254 250 246 244 242 242 242 242 243 246 246 249 252 253
259 257 254 255 259 259 260 260 261 260 263 262 263 263 262 263 261 260 259 259 259 258 265 281 294 247 241 245 249 253 251 245 243 243 245 246 244 245 243 245 247 248 251
263 260 258 258 262 264 266 266 265 265 265 264 264 265 265 265 265 261 258 257 259 263 264 276 296 231 235 237 243 249 249 244 243 243 245 246 244 244 244 245 246 246 251
272 264 264 266 271 274 275 274 273 271 269 268 267 267 267 267 267 266 257 259 281 302 277 276 264 234 225 232 242 246 244 241 242 245 249 247 246 243 244 245 246 247 250
289 287 288 288 286 284 281 279 278 276 275 273 273 272 270 271 270 268 266 273 276 284 280 269 257 244 244 240 243 245 242 244 244 246 252 245 243 242 243 244 243 245 247
323 316 314 315 314 309 304 296 288 283 279 276 276 275 275 275 273 272 269 272 274 278 274 265 260 255 250 242 243 243 244 243 244 245 251 249 245 242 241 242 243 246 246
294 301 305 307 308 309 310 309 304 296 289 283 280 277 276 275 274 271 270 270 271 270 267 264 261 257 252 245 244 246 248 248 248 251 250 250 248 244 240 241 243 247 247
288 294 299 301 302 303 304 304 303 301 295 288 285 283 280 277 275 272 270 266 267 267 266 264 264 258 253 249 250 251 254 251 251 251 250 250 251 244 240 237 241 246 248
286 291 295 298 299 301 302 302 302 300 295 290 285 283 282 280 276 273 271 268 265 265 266 266 265 260 255 251 247 248 251 251 250 251 250 252 251 246 238 235 238 243 247
287 290 293 295 297 300 301 301 301 299 295 289 285 282 282 281 279 276 272 270 268 267 266 266 264 262 259 253 248 248 251 251 250 251 250 251 248 242 236 233 236 240 244
289 292 294 295 298 300 299 300 300 300 295 289 285 284 282 281 280 279 275 272 270 268 266 265 264 261 258 254 250 249 250 250 249 250 248 246 245 240 236 232 234 239 242
290 292 295 296 298 299 299 300 298 295 293 290 285 283 282 280 279 277 275 273 271 269 267 266 264 262 259 255 251 249 248 248 248 248 246 243 241 238 235 233 236 239 242
292 294 296 297 298 298 299 299 298 296 293 290 288 285 283 281 279 277 275 274 272 269 269 267 266 262 259 255 252 250 248 248 246 246 244 241 239 236 236 236 238 239 240
294 294 297 298 299 299 300 299 298 297 295 294 290 286 285 283 280 277 274 272 272 269 268 267 266 263 260 257 254 252 250 248 246 244 242 240 238 236 236 237 238 237 239
297 298 300 301 301 301 301 300 299 298 296 294 292 290 287 284 282 280 276 274 272 269 267 266 264 263 261 258 257 254 251 248 245 243 240 239 236 235 236 236 236 238 240
300 300 303 304 304 304 304 304 303 302 300 298 295 293 291 288 285 282 279 275 273 271 268 265 263 263 260 258 256 253 252 249 245 242 240 238 236 234 234 234 234 237 238
302 303 305 305 306 306 306 306 305 304 303 301 298 295 293 290 286 283 281 279 274 272 268 265 263 262 260 258 256 254 252 248 245 241 239 237 236 233 232 233 235 239 238
303 305 306 307 307 308 309 307 307 306 305 303 300 297 294 290 286 283 281 280 276 272 268 266 263 261 258 257 255 253 251 248 244 240 239 237 236 233 230 231 233 236 235
306 307 308 308 309 310 310 311 310 308 306 306 302 300 297 291 286 285 283 282 280 275 267 264 263 261 258 256 253 250 249 247 245 240 238 238 236 232 229 229 231 231 233
308 309 310 311 312 313 314 314 314 313 311 310 309 305 302 295 288 287 285 285 282 278 270 264 263 260 257 254 252 250 249 247 245 242 239 237 236 235 229 228 231 230 233
311 312 313 314 315 318 319 319 319 320 319 320 316 315 311 304 294 290 286 287 287 282 275 269 264 259 255 252 251 250 249 245 242 240 238 237 234 232 228 228 230 231 230
313 315 317 319 320 322 325 328 328 326 324 323 323 321 318 313 302 295 291 288 288 284 281 275 268 260 255 252 251 249 247 243 241 238 236 237 233 230 228 227 227 229 225